TDRS 6

Last updated on Fri Sep 19 2025 00:02:40 GMT+0000 (Coordinated Universal Time)

1 22314U 93003B 25261.22893973 -.00000308 00000+0 00000+0 0 9996 2 22314 14.1769 359.0569 0011324 189.8823 205.0718 1.00268883119683
UTC large
Height (km)
Speed (km/s)
/
Latitude / Longitude
Inclination (degrees)
Orbital Period (minutes)
Azimuth
Elevation
Range (km)
Doppler Factor

Next 0 passes for location: London (51.5072 / 0.1276)

Sorry there are no passes over London.